TIME,DELAY(SENSOR),PRES,OXYGEN,RAWTEMP,T(OPTODE),TCPHASE,FLUOR,BETA(BETA700),BETA(BETA412),BETA(BETA440),CDOM,C(CSC),ED(ED411.90),ED(ED443.80),ED(ED489.40),ED(ED554.70),LU(LU412.20),LU(LU443.80),LU(LU489.40),LU(LU555.00),COMP,TILTX,TILTY,CHECK
1350770371,5808,862.1199951171875000,166.6360931396484400,434.6979980468750000,9.5423641204833980,39.0399398803710940,53,105,66,59,57,13618,2146961993,2147518189,2147287488,2147509504,2147088941,2146939858,2147707081,2147121133,668,-1,9,27559
1350773967,5804,978.1400146484375000,201.6959075927734400,503.8981933593750000,7.4085040092468260,37.8623390197753900,52,102,66,59,59,13616,2146960109,2147519844,2147296667,2147522596,2147090084,2146924672,2147716800,2147119762,2531,-1,9,21412
1350777567,5810,994.7899780273438000,214.5941925048828000,516.1173706054688000,7.0285830497741700,37.3128089904785160,52,106,66,57,58,13610,2146959862,2147518290,2147295268,2147524516,2147088448,2146925549,2147718134,2147120658,62,0,8,49468
1350781167,5808,1007.5399780273438000,216.3704986572265600,517.1970825195312000,6.9949641227722170,37.2296905517578100,53,108,67,58,57,13612,2146961508,2147517833,2147297709,2147525961,2147089536,2146926747,2147717787,2147118226,271,-1,8,9728
1350784767,5808,1005.8400268554688000,217.3327026367187500,519.0551147460938000,6.9370899200439450,37.2080497741699200,52,101,65,59,58,13605,2146957330,2147520585,2147295506,2147521974,2147090477,2146927433,2147722121,2147117888,66,0,8,48435
1350788367,5805,1002.3800048828125000,218.8312988281250000,521.3184814453125000,6.8665509223937990,37.1641082763671900,53,103,66,59,57,13606,2146962861,2147520246,2147296347,2147522368,2147089974,2146925723,2147721490,2147118756,1021,-1,9,25212
1350791967,5807,1008.6099853515625000,221.7628021240234400,522.8223876953125000,6.8196630477905270,37.0263710021972660,52,104,65,58,58,13603,2146960585,2147521782,2147295670,2147522340,2147087817,2146925659,2147718409,2147117202,3234,-1,8,15967
1350795567,5804,1013.7999877929688000,221.7003021240234400,522.6967773437500000,6.8235821723937990,37.0275611877441400,53,100,66,59,58,13601,2146960100,2147519149,2147296182,2147523428,2147090532,2146926656,2147718262,2147120941,3566,-1,8,56679
1350799167,5806,1014.0300292968750000,221.1923065185547000,522.9266967773438000,6.8164129257202150,37.0600395202636700,52,101,66,58,58,13550,2146961362,2147520036,2147298377,2147522971,2147090742,2146927104,2147720210,2147118848,3350,-1,8,45362
1350802767,5806,1012.8499755859375000,222.8105010986328000,523.9915161132812000,6.7832040786743160,36.9893684387207000,52,101,66,57,58,13560,2146961782,2147520320,2147300288,2147521883,2147094491,2146930358,2147724178,2147119661,3351,0,8,40129
1350806367,5805,1010.7600097656250000,223.3347930908203000,525.7315063476562000,6.7289209365844730,36.9906806945800800,53,104,66,59,58,13556,2146959634,2147518884,2147295058,2147523081,2147090532,2146922660,2147719469,2147119533,3532,0,8,13733
1350809967,5808,1013.0599975585938000,223.8397064208984400,525.2086791992188000,6.7452340126037600,36.9536705017089840,53,103,66,59,57,13559,2146957037,2147514560,2147298706,2147519579,2147092763,2146923446,2147720594,2147121645,178,-1,8,24058
1350813567,5806,1013.9699707031250000,223.2651062011718800,525.6010742187500000,6.7329912185668945,36.9929199218750000,52,102,66,57,58,13555,2146956342,2147517906,2147296512,2147524662,2147091136,2146928457,2147720667,2147123026,535,0,8,43726
1350817167,5805,1014.1900024414062000,223.5509948730468800,525.5136718750000000,6.7357158660888670,36.9752197265625000,52,105,66,59,58,13551,2146960502,2147521536,2147296182,2147523529,2147091968,2146919515,2147723949,2147118528,3078,-1,9,28636
1350820767,5808,1021.5100097656250000,222.5729980468750000,523.9046020507812000,6.7859139442443850,37.0002593994140600,52,103,66,59,58,13557,2146958464,2147518902,2147297069,2147524864,2147090505,2146928210,2147725385,2147119561,288,0,8,54202
1350824367,5807,1021.4400024414062000,221.5529937744140600,523.5797119140625000,6.7960481643676760,37.0512619018554700,53,102,66,58,58,13552,2146961307,2147520283,2147296237,2147521910,2147091328,2146920713,2147718921,2147117942,63,0,8,20816
1350827967,5806,1022.9000244140625000,221.1228027343750000,522.7717895507812000,6.8212428092956540,37.0612297058105500,52,101,66,58,58,13553,2146960896,2147519698,2147296877,2147524626,2147087771,2146919488,2147724790,2147117696,3278,-1,9,19722
1350831567,5804,1020.5499877929688000,220.8428955078125000,522.6301879882812000,6.8256587982177730,37.0743408203125000,52,104,65,59,58,13554,2146961334,2147516717,2147295616,2147522048,2147091894,2146930331,2147725577,2147119881,3325,-1,8,1798
1350835167,5806,1019.7899780273438000,221.6253967285156200,523.7072753906250000,6.7920689582824710,37.0491790771484400,52,101,66,59,58,13552,2146961325,2147518729,2147297490,2147522185,2147093403,2146920987,2147722852,2147120073,3274,-1,8,1276
1350838767,5808,1023.2800292968750000,220.9299011230468800,523.1842041015625000,6.8083820343017580,37.0787200927734400,52,106,65,58,57,13549,2146961682,2147519158,2147296091,2147522432,2147091264,2146924059,2147721737,2147117147,220,-1,8,20177
1350842367,5808,1026.0000000000000000,220.1051940917968800,522.3989257812500000,6.8328709602355960,37.1116104125976560,52,101,66,59,57,13552,2146961243,2147517010,2147294619,2147523538,2147091693,2146926729,2147719360,2147121170,3421,-1,8,42663
1350845967,5810,1021.1599731445312000,220.0373992919922000,524.2996215820312000,6.7735958099365230,37.1489486694335940,53,102,65,59,57,13550,2146957705,2147520786,2147297984,2147525549,2147091401,2146922715,2147723456,2147119616,6,0,8,35689
1350849567,5806,1018.8900146484375000,220.8984985351562500,525.7747802734375000,6.7275691032409670,37.1267890930175800,53,102,66,58,59,13546,2146956891,2147519222,2147297243,2147523163,2147091026,2146924534,2147722340,2147120758,3443,0,8,5110
1350853167,5807,1015.1799926757812000,224.7012023925781200,526.7219238281250000,6.6980128288269040,36.9336204528808600,53,102,66,58,57,13548,2146957595,2147518902,2147297828,2147524315,2147090688,2146927350,2147720484,2147120557,450,0,8,59898
1350856767,5807,1007.8800048828125000,224.3000946044922000,527.7003784179688000,6.6674709320068360,36.9727592468261700,52,101,66,58,58,13546,2146961005,2147518637,2147298496,2147522441,2147092882,2146923611,2147722294,2147120704,555,-1,8,61428
1350860367,5808,1015.0700073242188000,226.1920928955078000,527.6373291015625000,6.6694412231445310,36.8681182861328100,52,101,66,57,57,13544,2146957568,2147518436,2147300333,2147522971,2147091675,2146926665,2147723492,2147121353,95,-1,8,35634
1350863967,5803,1014.0499877929688000,225.1716003417968800,527.3820800781250000,6.6774082183837890,36.9196205139160160,52,104,65,60,58,13541,2146957650,2147520768,2147296201,2147519378,2147093156,2146922468,2147723437,2147120649,2988,-1,9,7134
1350867567,5808,1019.5599975585938000,225.9412994384765600,527.5697021484375000,6.6715512275695800,36.8810081481933600,54,108,65,59,59,13548,2146960036,2147517138,2147294811,2147527506,2147091876,2146923126,2147722185,2147120329,54,0,8,2527
1350871167,5809,1024.8499755859375000,223.4573059082031200,526.0477294921875000,6.7190551757812500,36.9896392822265600,52,104,66,58,58,13542,2146963053,2147521298,2147296073,2147524251,2147092470,2146921645,2147721499,2147121389,46,-1,8,13275
1350874767,5805,1027.8800048828125000,223.6800994873047000,525.5538940429688000,6.7344632148742680,36.9686203002929700,52,103,66,59,57,13545,2146960585,2147519725,2147293906,2147525156,2147088841,2146923721,2147724260,2147117193,3225,0,8,34691
1350878367,5805,1030.1500244140625000,222.9309997558593800,524.3408203125000000,6.7723078727722170,36.9890213012695300,53,104,66,59,58,13542,2146960685,2147521965,2147295478,2147520996,2147091949,2146924973,2147724114,2147119168,3422,-1,9,5927
1350881967,5801,1028.2700195312500000,221.7743072509765600,524.2241821289062000,6.7759470939636230,37.0503616333007800,52,101,66,60,58,13536,2146962084,2147519588,2147294217,2147520155,2147093504,2146923922,2147722870,2147118939,3516,-1,9,59202
1350885567,5805,1025.8100585937500000,221.7601013183593800,524.0811157226562000,6.7804098129272460,37.0486793518066400,52,105,65,59,57,13534,2146958381,2147520530,2147296777,2147524068,2147090084,2146924882,2147719826,2147118692,3507,0,9,19286
1350889167,5805,1028.5999755859375000,222.1692962646484400,523.6865234375000000,6.7927188873291020,37.0195198059082000,52,104,66,59,58,13539,2146958418,2147517924,2147294884,2147523355,2147088630,2146926573,2147720082,2147120320,3430,-1,9,38635
1350892767,5807,1028.1800537109375000,223.4644927978515600,525.1851806640625000,6.7459669113159180,36.9739494323730500,53,101,66,58,58,13538,2146959168,2147519661,2147297956,2147520603,2147093604,2146928265,2147724598,2147117522,202,0,8,6850
1350896367,5807,1025.7500000000000000,223.3692016601562500,525.5512695312500000,6.7345428466796875,36.9857711791992200,52,103,65,59,57,13536,2146962459,2147519954,2147295286,2147518491,2147090459,2146925440,2147725238,2147120969,715,-1,8,52515
1350899967,5807,1022.2299804687500000,224.0603027343750000,526.3521118164062000,6.7095570564270020,36.9622383117675800,52,106,67,59,58,13536,2146962249,2147515556,2147299172,2147523593,2147091529,2146922185,2147724772,2147121554,2783,-1,9,60794
1350903567,5809,1020.6799926757812000,223.8688964843750000,526.9561157226562000,6.6907038688659670,36.9837684631347660,52,102,65,58,57,13538,2146959771,2147519798,2147300425,2147522980,2147091648,2146919853,2147722441,2147119506,3577,-1,8,40547
1350907167,5807,1020.9199829101562000,223.7695007324218800,527.4970092773438000,6.6738200187683105,36.9987792968750000,51,109,66,59,58,13533,2146961691,2147520530,2147295771,2147524516,2147090971,2146925979,2147723190,2147118409,55,-1,8,9422
1350910767,5805,1024.8499755859375000,224.5850982666015600,526.5911254882812000,6.7020950317382810,36.9371910095214840,53,104,66,59,58,13523,2146961782,2147520658,2147296722,2147519643,2147089344,2146926637,2147722861,2147120265,3172,-1,8,37582
1350913556,5805,1023.6300048828125000,224.8267059326172000,526.6226196289062000,6.7011132240295410,36.9248390197753900,52,102,66,59,58,13563,2146960320,2147514706,2147302454,2147516397,2147089152,2146925622,2147721490,2147120987,2903,-1,8,15264
